Time,TemperatureF,DewpointF,PressureIn,WindDirection,WindDirectionDegrees,WindSpeedMPH,WindSpeedGustMPH,Humidity,HourlyPrecipIn,Conditions,Clouds,dailyrainin,SolarRadiationWatts/m^2,SoftwareType,DateUTC
2013-01-13 00:03:00,23.2,12.8,29.99,ESE,110,1.1,0.0,64,0.00,CLR,,0.00,0.0,WeatherDisplay:10.37,2013-01-13 08:03:00,
2013-01-13 00:08:00,23.4,13.0,29.99,ESE,110,1.1,0.0,64,0.00,CLR,,0.00,160.6,WeatherDisplay:10.37,2013-01-13 08:08:00,
2013-01-13 00:13:00,23.4,13.0,29.99,SSE,155,1.1,0.0,64,0.00,CLR,,0.00,0.0,WeatherDisplay:10.37,2013-01-13 08:13:00,
2013-01-13 00:18:00,23.4,13.0,29.99,SSE,155,1.1,0.0,64,0.00,CLR,,0.00,160.6,WeatherDisplay:10.37,2013-01-13 08:18:00,
2013-01-13 00:23:00,23.4,13.0,29.99,SSE,155,1.1,0.0,64,0.00,CLR,,0.00,160.6,WeatherDisplay:10.37,2013-01-13 08:23:00,
2013-01-13 00:28:00,23.2,13.1,29.99,SSW,200,2.3,2.3,65,0.00,CLR,,0.00,160.6,WeatherDisplay:10.37,2013-01-13 08:28:00,
2013-01-13 00:33:00,23.2,12.8,29.99,SSW,200,1.1,0.0,64,0.00,CLR,,0.00,160.6,WeatherDisplay:10.37,2013-01-13 08:33:00,
2013-01-13 00:38:00,23.0,12.3,29.99,WSW,245,2.3,2.3,63,0.00,CLR,,0.00,109.0,WeatherDisplay:10.37,2013-01-13 08:38:00,
2013-01-13 00:43:00,22.8,12.1,29.99,WSW,245,3.5,3.5,63,0.00,CLR,,0.00,109.0,WeatherDisplay:10.37,2013-01-13 08:43:00,
2013-01-13 00:48:00,22.8,12.1,29.99,WSW,245,3.5,3.5,63,0.00,CLR,,0.00,109.0,WeatherDisplay:10.37,2013-01-13 08:48:00,
2013-01-13 00:53:00,22.8,12.1,29.99,WSW,245,2.3,0.0,63,0.00,CLR,,0.00,109.0,WeatherDisplay:10.37,2013-01-13 08:53:00,
2013-01-13 00:58:00,22.8,12.1,29.99,SSW,200,3.1,3.1,63,0.00,CLR,,0.00,109.0,WeatherDisplay:10.37,2013-01-13 08:58:00,
2013-01-13 01:03:00,22.8,12.1,29.99,SSW,200,1.1,1.1,63,0.00,CLR,,0.00,109.0,WeatherDisplay:10.37,2013-01-13 09:03:00,
2013-01-13 01:08:00,22.6,11.9,29.99,SSW,200,1.1,1.1,63,0.00,CLR,,0.00,57.1,WeatherDisplay:10.37,2013-01-13 09:08:00,
2013-01-13 01:13:00,22.5,12.1,30.00,SSW,200,1.1,1.1,64,0.00,CLR,,0.00,57.1,WeatherDisplay:10.37,2013-01-13 09:13:00,
2013-01-13 01:18:00,22.3,11.6,29.99,SSE,155,1.1,0.0,63,0.00,CLR,,0.00,57.1,WeatherDisplay:10.37,2013-01-13 09:18:00,
2013-01-13 01:23:00,22.1,11.4,29.99,WSW,245,1.1,0.0,63,0.00,CLR,,0.00,57.1,WeatherDisplay:10.37,2013-01-13 09:23:00,
2013-01-13 01:28:00,21.7,10.7,29.99,WSW,245,1.1,0.0,62,0.00,CLR,,0.00,57.1,WeatherDisplay:10.37,2013-01-13 09:28:00,
2013-01-13 01:33:00,21.4,10.7,30.00,SSW,200,2.3,2.3,63,0.00,CLR,,0.00,57.1,WeatherDisplay:10.37,2013-01-13 09:33:00,
2013-01-13 01:38:00,21.4,10.7,30.00,SSW,200,2.3,0.0,63,0.00,CLR,,0.00,5.3,WeatherDisplay:10.37,2013-01-13 09:38:00,
2013-01-13 01:43:00,21.2,10.2,30.00,WSW,245,1.1,1.1,62,0.00,CLR,,0.00,5.3,WeatherDisplay:10.37,2013-01-13 09:43:00,
2013-01-13 01:48:00,21.2,10.2,30.00,WSW,245,1.1,0.0,62,0.00,CLR,,0.00,5.3,WeatherDisplay:10.37,2013-01-13 09:48:00,
2013-01-13 01:53:00,21.2,10.2,30.00,SSW,200,1.1,0.0,62,0.00,CLR,,0.00,5.3,WeatherDisplay:10.37,2013-01-13 09:53:00,
2013-01-13 01:58:00,21.6,10.5,30.00,SSE,155,2.3,0.0,62,0.00,CLR,,0.00,5.3,WeatherDisplay:10.37,2013-01-13 09:58:00,
2013-01-13 02:03:00,21.4,10.0,30.00,SSE,155,1.1,0.0,61,0.00,CLR,,0.00,5.3,WeatherDisplay:10.37,2013-01-13 10:03:00,
2013-01-13 02:08:00,20.7,9.7,30.00,WSW,245,1.1,0.0,62,0.00,CLR,,0.00,13207.7,WeatherDisplay:10.37,2013-01-13 10:08:00,
2013-01-13 02:13:00,20.8,10.2,30.00,WSW,245,2.3,0.0,63,0.00,CLR,,0.00,13207.7,WeatherDisplay:10.37,2013-01-13 10:13:00,
2013-01-13 02:18:00,20.8,9.9,30.00,WSW,245,1.1,0.0,62,0.00,CLR,,0.00,13207.7,WeatherDisplay:10.37,2013-01-13 10:18:00,
2013-01-13 02:23:00,20.8,9.9,30.00,SSW,200,1.1,0.0,62,0.00,CLR,,0.00,13207.7,WeatherDisplay:10.37,2013-01-13 10:23:00,
2013-01-13 02:28:00,21.0,10.0,30.00,SSW,200,1.1,0.0,62,0.00,CLR,,0.00,13207.7,WeatherDisplay:10.37,2013-01-13 10:28:00,
2013-01-13 02:33:00,20.8,9.9,30.00,SSW,200,1.1,0.0,62,0.00,CLR,,0.00,13207.7,WeatherDisplay:10.37,2013-01-13 10:33:00,
2013-01-13 02:38:00,20.7,9.7,30.00,SSW,200,1.1,0.0,62,0.00,CLR,,0.00,13155.7,WeatherDisplay:10.37,2013-01-13 10:38:00,
2013-01-13 02:43:00,20.3,9.3,29.99,SSE,155,1.1,0.0,62,0.00,CLR,,0.00,13155.7,WeatherDisplay:10.37,2013-01-13 10:43:00,
2013-01-13 02:48:00,20.3,9.7,29.99,WSW,245,2.3,2.3,63,0.00,CLR,,0.00,13155.7,WeatherDisplay:10.37,2013-01-13 10:48:00,
2013-01-13 02:53:00,20.8,9.9,30.00,WSW,245,3.5,3.5,62,0.00,CLR,,0.00,13155.7,WeatherDisplay:10.37,2013-01-13 10:53:00,
2013-01-13 02:58:00,21.0,9.7,29.99,WSW,245,2.3,2.3,61,0.00,CLR,,0.00,13155.7,WeatherDisplay:10.37,2013-01-13 10:58:00,
2013-01-13 03:03:00,21.0,10.0,30.00,WSW,245,2.3,2.3,62,0.00,CLR,,0.00,13155.7,WeatherDisplay:10.37,2013-01-13 11:03:00,
2013-01-13 03:08:00,21.0,9.7,29.99,SSW,200,2.3,0.0,61,0.00,CLR,,0.00,13104.0,WeatherDisplay:10.37,2013-01-13 11:08:00,
2013-01-13 03:13:00,20.7,9.3,29.99,SSW,200,1.1,0.0,61,0.00,CLR,,0.00,13104.0,WeatherDisplay:10.37,2013-01-13 11:13:00,
2013-01-13 03:18:00,20.5,9.5,29.99,WSW,245,2.3,2.3,62,0.00,CLR,,0.00,13104.0,WeatherDisplay:10.37,2013-01-13 11:18:00,
2013-01-13 03:23:00,20.8,9.5,30.00,WSW,245,3.5,3.5,61,0.00,CLR,,0.00,13104.0,WeatherDisplay:10.37,2013-01-13 11:23:00,
2013-01-13 03:28:00,21.0,9.7,29.99,WSW,245,3.5,3.5,61,0.00,CLR,,0.00,13104.0,WeatherDisplay:10.37,2013-01-13 11:28:00,
2013-01-13 03:33:00,20.8,9.5,29.99,SSW,200,1.1,0.0,61,0.00,CLR,,0.00,13104.0,WeatherDisplay:10.37,2013-01-13 11:33:00,
2013-01-13 03:38:00,20.3,9.3,30.00,WSW,245,2.3,2.3,62,0.00,CLR,,0.00,13052.2,WeatherDisplay:10.37,2013-01-13 11:38:00,
2013-01-13 03:43:00,20.5,9.5,29.99,WSW,245,3.5,3.5,62,0.00,CLR,,0.00,13052.2,WeatherDisplay:10.37,2013-01-13 11:43:00,
2013-01-13 03:48:00,20.5,9.5,29.99,WSW,245,3.5,3.5,62,0.00,CLR,,0.00,13052.2,WeatherDisplay:10.37,2013-01-13 11:48:00,
2013-01-13 03:53:00,20.7,9.7,29.99,SSW,200,4.6,4.6,62,0.00,CLR,,0.00,13052.2,WeatherDisplay:10.37,2013-01-13 11:53:00,
2013-01-13 03:58:00,20.5,9.2,29.99,SSW,200,3.5,3.5,61,0.00,CLR,,0.00,13052.2,WeatherDisplay:10.37,2013-01-13 11:58:00,
2013-01-13 04:04:00,20.7,9.3,29.99,WSW,245,2.3,2.3,61,0.00,CLR,,0.00,13052.2,WeatherDisplay:10.37,2013-01-13 12:04:00,
2013-01-13 04:09:00,19.6,9.7,29.99,WSW,245,2.3,0.0,65,0.00,CLR,,0.00,13000.6,WeatherDisplay:10.37,2013-01-13 12:09:00,
2013-01-13 04:14:00,18.9,8.7,29.99,WSW,245,1.1,0.0,64,0.00,CLR,,0.00,13000.6,WeatherDisplay:10.37,2013-01-13 12:14:00,
2013-01-13 04:19:00,18.5,8.3,29.99,ESE,110,1.1,0.0,64,0.00,CLR,,0.00,13000.6,WeatherDisplay:10.37,2013-01-13 12:19:00,
2013-01-13 04:24:00,18.5,8.7,29.99,NNE,20,1.1,1.1,65,0.00,CLR,,0.00,13000.6,WeatherDisplay:10.37,2013-01-13 12:24:00,
2013-01-13 04:29:00,18.5,8.3,29.99,NNE,20,3.5,3.5,64,0.00,CLR,,0.00,13000.6,WeatherDisplay:10.37,2013-01-13 12:29:00,
2013-01-13 04:34:00,18.0,8.5,30.00,NNE,20,2.3,2.3,66,0.00,CLR,,0.00,13000.6,WeatherDisplay:10.37,2013-01-13 12:34:00,
2013-01-13 04:39:00,17.6,8.5,30.00,NNE,20,1.1,0.0,67,0.00,CLR,,0.00,12949.0,WeatherDisplay:10.37,2013-01-13 12:39:00,
2013-01-13 04:44:00,17.2,8.5,30.00,NNE,20,2.3,0.0,68,0.00,CLR,,0.00,12949.0,WeatherDisplay:10.37,2013-01-13 12:44:00,
2013-01-13 04:49:00,16.7,7.6,30.00,NNE,20,0.0,0.0,67,0.00,CLR,,0.00,12949.0,WeatherDisplay:10.37,2013-01-13 12:49:00,
2013-01-13 04:54:00,16.7,7.6,30.00,NNE,20,1.1,0.0,67,0.00,CLR,,0.00,12949.0,WeatherDisplay:10.37,2013-01-13 12:54:00,
2013-01-13 04:59:00,16.9,7.8,30.00,NNE,20,0.0,0.0,67,0.00,CLR,,0.00,12949.0,WeatherDisplay:10.37,2013-01-13 12:59:00,
2013-01-13 05:04:00,17.1,8.3,30.00,NNW,335,1.1,1.1,68,0.00,CLR,,0.00,12949.0,WeatherDisplay:10.37,2013-01-13 13:04:00,
2013-01-13 05:09:00,18.5,9.4,30.00,WSW,245,1.1,1.1,67,0.00,CLR,,0.00,13000.8,WeatherDisplay:10.37,2013-01-13 13:09:00,
2013-01-13 05:14:00,18.5,9.4,30.00,WSW,245,1.1,1.1,67,0.00,CLR,,0.00,13000.8,WeatherDisplay:10.37,2013-01-13 13:14:00,
2013-01-13 05:19:00,18.7,9.2,30.00,WSW,245,2.3,2.3,66,0.00,CLR,,0.00,13000.8,WeatherDisplay:10.37,2013-01-13 13:19:00,
2013-01-13 05:24:00,18.9,9.0,30.00,WSW,245,3.5,3.5,65,0.00,CLR,,0.00,13000.8,WeatherDisplay:10.37,2013-01-13 13:24:00,
2013-01-13 05:29:00,18.9,9.0,30.00,WSW,245,2.3,0.0,65,0.00,CLR,,0.00,13000.8,WeatherDisplay:10.37,2013-01-13 13:29:00,
2013-01-13 05:34:00,18.5,8.7,30.01,WSW,245,1.1,0.0,65,0.00,CLR,,0.00,13000.8,WeatherDisplay:10.37,2013-01-13 13:34:00,
2013-01-13 05:39:00,18.1,8.3,30.01,SSE,155,1.6,0.0,65,0.00,CLR,,0.00,0.0,WeatherDisplay:10.37,2013-01-13 13:39:00,
2013-01-13 05:44:00,17.8,8.7,30.01,SSE,155,2.3,2.3,67,0.00,CLR,,0.00,0.0,WeatherDisplay:10.37,2013-01-13 13:44:00,
2013-01-13 05:49:00,17.8,8.7,30.00,SSE,155,1.1,0.0,67,0.00,CLR,,0.00,5.5,WeatherDisplay:10.37,2013-01-13 13:49:00,
2013-01-13 05:54:00,17.4,8.7,30.00,ESE,110,3.5,3.5,68,0.00,CLR,,0.00,0.0,WeatherDisplay:10.37,2013-01-13 13:54:00,
2013-01-13 05:59:00,17.4,8.7,30.01,SSE,155,2.3,2.3,68,0.00,CLR,,0.00,0.0,WeatherDisplay:10.37,2013-01-13 13:59:00,
2013-01-13 06:04:00,17.4,8.7,30.01,SSE,155,3.5,3.5,68,0.00,CLR,,0.00,0.0,WeatherDisplay:10.37,2013-01-13 14:04:00,
2013-01-13 06:09:00,17.8,9.3,30.01,SSE,155,3.5,3.5,69,0.00,CLR,,0.00,0.0,WeatherDisplay:10.37,2013-01-13 14:09:00,
2013-01-13 06:14:00,18.0,9.2,30.01,SSE,155,1.1,1.1,68,0.00,CLR,,0.00,0.0,WeatherDisplay:10.37,2013-01-13 14:14:00,
2013-01-13 06:19:00,18.0,9.2,30.02,SSW,200,2.3,2.3,68,0.00,CLR,,0.00,0.0,WeatherDisplay:10.37,2013-01-13 14:19:00,
2013-01-13 06:24:00,18.3,9.5,30.02,SSW,200,3.5,3.5,68,0.00,CLR,,0.00,0.0,WeatherDisplay:10.37,2013-01-13 14:24:00,
2013-01-13 06:29:00,18.5,9.4,30.02,SSW,200,1.1,1.1,67,0.00,CLR,,0.00,160.8,WeatherDisplay:10.37,2013-01-13 14:29:00,
2013-01-13 06:34:00,18.5,9.4,30.02,SSE,155,1.1,0.0,67,0.00,CLR,,0.00,160.8,WeatherDisplay:10.37,2013-01-13 14:34:00,
2013-01-13 06:39:00,18.1,9.0,30.02,SSE,155,1.1,1.1,67,0.00,CLR,,0.00,264.1,WeatherDisplay:10.37,2013-01-13 14:39:00,
2013-01-13 06:44:00,18.0,9.2,30.02,SSE,155,1.1,0.0,68,0.00,CLR,,0.00,264.1,WeatherDisplay:10.37,2013-01-13 14:44:00,
2013-01-13 06:49:00,17.8,8.7,30.02,SSE,155,1.1,0.0,67,0.00,CLR,,0.00,264.1,WeatherDisplay:10.37,2013-01-13 14:49:00,
2013-01-13 06:54:00,17.4,8.7,30.02,SSE,155,1.1,0.0,68,0.00,CLR,,0.00,264.1,WeatherDisplay:10.37,2013-01-13 14:54:00,
2013-01-13 06:59:00,17.1,8.6,30.02,SSE,155,1.1,1.1,69,0.00,CLR,,0.00,264.1,WeatherDisplay:10.37,2013-01-13 14:59:00,
2013-01-13 07:04:00,17.1,9.0,30.02,SSE,155,2.3,2.3,70,0.00,CLR,,0.00,264.1,WeatherDisplay:10.37,2013-01-13 15:04:00,
2013-01-13 07:09:00,17.2,8.8,30.02,SSE,155,1.1,0.0,69,0.00,CLR,,0.00,315.9,WeatherDisplay:10.37,2013-01-13 15:09:00,
2013-01-13 07:14:00,17.6,9.2,30.02,SSE,155,1.1,0.0,69,0.00,CLR,,0.00,0.0,WeatherDisplay:10.37,2013-01-13 15:14:00,
2013-01-13 07:19:00,18.9,9.7,30.02,SSE,155,1.1,1.1,67,0.00,CLR,,0.00,315.9,WeatherDisplay:10.37,2013-01-13 15:19:00,
2013-01-13 07:24:00,20.1,10.2,30.02,SSE,155,1.1,1.1,65,0.00,CLR,,0.00,315.9,WeatherDisplay:10.37,2013-01-13 15:24:00,
2013-01-13 07:29:00,21.7,10.3,30.02,SSW,200,1.1,1.1,61,0.00,CLR,,0.00,315.9,WeatherDisplay:10.37,2013-01-13 15:29:00,
2013-01-13 07:34:00,23.2,11.0,30.02,SSW,200,1.1,1.1,59,0.00,CLR,,0.00,315.9,WeatherDisplay:10.37,2013-01-13 15:34:00,
2013-01-13 07:39:00,24.1,11.0,30.02,SSW,200,3.5,3.5,57,0.00,CLR,,0.00,367.7,WeatherDisplay:10.37,2013-01-13 15:39:00,
2013-01-13 07:44:00,24.8,11.3,30.03,SSW,200,1.1,0.0,56,0.00,CLR,,0.00,367.7,WeatherDisplay:10.37,2013-01-13 15:44:00,
2013-01-13 07:49:00,26.1,12.1,30.03,SSE,155,1.1,0.0,55,0.00,CLR,,0.00,367.7,WeatherDisplay:10.37,2013-01-13 15:49:00,
2013-01-13 07:54:00,27.5,12.6,30.03,SSE,155,1.1,0.0,53,0.00,CLR,,0.00,367.7,WeatherDisplay:10.37,2013-01-13 15:54:00,
2013-01-13 07:59:00,28.6,12.3,30.03,SSE,155,3.5,3.5,50,0.00,CLR,,0.00,367.7,WeatherDisplay:10.37,2013-01-13 15:59:00,
2013-01-13 08:04:00,28.6,12.3,30.03,SSE,155,3.5,3.5,50,0.00,CLR,,0.00,5.0,WeatherDisplay:10.37,2013-01-13 16:04:00,
2013-01-13 08:09:00,28.9,12.6,30.03,SSE,155,3.5,3.5,50,0.00,CLR,,0.00,16.0,WeatherDisplay:10.37,2013-01-13 16:09:00,
2013-01-13 08:14:00,30.4,14.4,30.03,ESE,110,1.1,0.0,51,0.00,CLR,,0.00,27.0,WeatherDisplay:10.37,2013-01-13 16:14:00,
2013-01-13 08:19:00,32.4,15.8,30.03,ESE,110,1.1,0.0,50,0.00,CLR,,0.00,367.7,WeatherDisplay:10.37,2013-01-13 16:19:00,
2013-01-13 08:24:00,33.4,14.3,30.04,ESE,110,1.1,0.0,45,0.00,CLR,,0.00,51.0,WeatherDisplay:10.37,2013-01-13 16:24:00,
2013-01-13 08:29:00,34.0,14.3,30.04,ESE,110,2.3,2.3,44,0.00,CLR,,0.00,63.0,WeatherDisplay:10.37,2013-01-13 16:29:00,
2013-01-13 08:34:00,33.6,14.0,30.03,ESE,110,1.1,1.1,44,0.00,CLR,,0.00,75.0,WeatherDisplay:10.37,2013-01-13 16:34:00,
2013-01-13 08:39:00,34.3,15.2,30.04,ESE,110,1.1,0.0,45,0.00,CLR,,0.00,88.0,WeatherDisplay:10.37,2013-01-13 16:39:00,
2013-01-13 08:44:00,35.4,14.0,30.03,SSE,155,3.5,3.5,41,0.00,CLR,,0.00,101.0,WeatherDisplay:10.37,2013-01-13 16:44:00,
2013-01-13 08:49:00,35.2,14.4,30.03,SSW,200,2.3,2.3,42,0.00,CLR,,0.00,113.0,WeatherDisplay:10.37,2013-01-13 16:49:00,
2013-01-13 08:54:00,35.4,14.6,30.03,SSE,155,3.5,3.5,42,0.00,CLR,,0.00,126.0,WeatherDisplay:10.37,2013-01-13 16:54:00,
2013-01-13 08:59:00,36.1,15.2,30.03,ESE,110,1.1,0.0,42,0.00,CLR,,0.00,140.0,WeatherDisplay:10.37,2013-01-13 16:59:00,
2013-01-13 09:04:00,36.7,15.7,30.03,SSE,155,1.1,0.0,42,0.00,CLR,,0.00,153.0,WeatherDisplay:10.37,2013-01-13 17:04:00,
2013-01-13 09:09:00,40.3,15.4,30.03,SSE,155,2.3,0.0,36,0.00,CLR,,0.00,166.0,WeatherDisplay:10.37,2013-01-13 17:09:00,
2013-01-13 09:14:00,40.3,15.4,30.03,WSW,245,1.1,0.0,36,0.00,CLR,,0.00,419.3,WeatherDisplay:10.37,2013-01-13 17:14:00,
2013-01-13 09:19:00,41.9,17.5,30.03,ENE,65,1.1,0.0,37,0.00,CLR,,0.00,193.0,WeatherDisplay:10.37,2013-01-13 17:19:00,
2013-01-13 09:24:00,44.2,16.9,30.03,ESE,110,1.6,0.0,33,0.00,CLR,,0.00,419.3,WeatherDisplay:10.37,2013-01-13 17:24:00,
2013-01-13 09:29:00,44.8,17.4,30.03,ENE,65,1.1,1.1,33,0.00,CLR,,0.00,220.0,WeatherDisplay:10.37,2013-01-13 17:29:00,
2013-01-13 09:34:00,44.4,12.5,30.03,SSE,155,3.5,3.5,27,0.00,CLR,,0.00,234.0,WeatherDisplay:10.37,2013-01-13 17:34:00,
2013-01-13 09:39:00,44.1,12.2,30.03,SSE,155,2.3,2.3,27,0.00,CLR,,0.00,247.0,WeatherDisplay:10.37,2013-01-13 17:39:00,
2013-01-13 09:44:00,43.0,10.4,30.03,ESE,110,3.5,3.5,26,0.00,CLR,,0.00,261.0,WeatherDisplay:10.37,2013-01-13 17:44:00,
2013-01-13 09:49:00,41.2,10.5,30.03,ENE,65,3.5,0.0,28,0.00,CLR,,0.00,274.0,WeatherDisplay:10.37,2013-01-13 17:49:00,
2013-01-13 09:54:00,42.3,11.4,30.03,ESE,110,1.1,0.0,28,0.00,CLR,,0.00,288.0,WeatherDisplay:10.37,2013-01-13 17:54:00,
2013-01-13 09:59:00,44.1,12.2,30.03,NNE,20,3.5,3.5,27,0.00,CLR,,0.00,301.0,WeatherDisplay:10.37,2013-01-13 17:59:00,
2013-01-13 10:04:00,44.2,12.3,30.03,ENE,65,3.5,3.5,27,0.00,CLR,,0.00,314.0,WeatherDisplay:10.37,2013-01-13 18:04:00,
2013-01-13 10:09:00,45.7,10.9,30.03,ENE,65,3.5,3.5,24,0.00,CLR,,0.00,327.0,WeatherDisplay:10.37,2013-01-13 18:09:00,
2013-01-13 10:14:00,46.4,9.6,30.03,ENE,65,2.3,2.3,22,0.00,CLR,,0.00,340.0,WeatherDisplay:10.37,2013-01-13 18:14:00,
2013-01-13 10:19:00,46.6,7.6,30.03,ENE,65,3.5,3.5,20,0.00,CLR,,0.00,471.0,WeatherDisplay:10.37,2013-01-13 18:19:00,
2013-01-13 10:24:00,46.4,8.5,30.03,ESE,110,2.3,2.3,21,0.00,CLR,,0.00,365.0,WeatherDisplay:10.37,2013-01-13 18:24:00,
2013-01-13 10:29:00,45.7,8.9,30.03,NNE,20,5.4,5.4,22,0.00,CLR,,0.00,471.0,WeatherDisplay:10.37,2013-01-13 18:29:00,
2013-01-13 10:34:00,46.9,9.0,30.02,NNE,20,4.6,4.6,21,0.00,CLR,,0.00,390.0,WeatherDisplay:10.37,2013-01-13 18:34:00,
2013-01-13 10:39:00,46.8,7.7,30.02,ENE,65,1.1,1.1,20,0.00,CLR,,0.00,402.0,WeatherDisplay:10.37,2013-01-13 18:39:00,
2013-01-13 10:44:00,47.8,5.0,30.02,NNE,20,4.6,4.6,17,0.00,CLR,,0.00,414.0,WeatherDisplay:10.37,2013-01-13 18:44:00,
2013-01-13 10:49:00,46.9,5.6,30.02,NNE,20,4.6,4.6,18,0.00,CLR,,0.00,425.0,WeatherDisplay:10.37,2013-01-13 18:49:00,
2013-01-13 10:54:00,46.4,6.3,30.02,NNW,335,6.9,6.9,19,0.00,CLR,,0.00,436.0,WeatherDisplay:10.37,2013-01-13 18:54:00,
2013-01-13 10:59:00,45.9,7.0,30.01,NNW,335,4.6,4.6,20,0.00,CLR,,0.00,447.0,WeatherDisplay:10.37,2013-01-13 18:59:00,
2013-01-13 11:04:00,45.7,6.8,30.00,SSW,200,1.1,0.0,20,0.00,CLR,,0.00,457.0,WeatherDisplay:10.37,2013-01-13 19:04:00,
2013-01-13 11:09:00,48.4,2.8,30.00,ESE,110,3.5,3.5,15,0.00,CLR,,0.00,468.0,WeatherDisplay:10.37,2013-01-13 19:09:00,
2013-01-13 11:14:00,48.4,5.5,30.00,NNE,20,3.5,3.5,17,0.00,CLR,,0.00,477.0,WeatherDisplay:10.37,2013-01-13 19:14:00,
2013-01-13 11:19:00,47.8,3.7,29.99,ESE,110,3.5,3.5,16,0.00,CLR,,0.00,487.0,WeatherDisplay:10.37,2013-01-13 19:19:00,
2013-01-13 11:24:00,48.7,5.8,29.99,NNE,20,3.5,0.0,17,0.00,CLR,,0.00,522.8,WeatherDisplay:10.37,2013-01-13 19:24:00,
2013-01-13 11:29:00,49.3,3.5,29.98,ESE,110,4.6,4.6,15,0.00,CLR,,0.00,505.0,WeatherDisplay:10.37,2013-01-13 19:29:00,
2013-01-13 11:34:00,47.7,4.9,29.97,NNE,20,3.5,3.5,17,0.00,CLR,,0.00,522.8,WeatherDisplay:10.37,2013-01-13 19:34:00,
2013-01-13 11:39:00,49.3,6.2,29.97,ESE,110,1.1,0.0,17,0.00,CLR,,0.00,521.0,WeatherDisplay:10.37,2013-01-13 19:39:00,
2013-01-13 11:44:00,49.8,0.8,29.97,SSE,155,3.5,3.5,13,0.00,CLR,,0.00,528.0,WeatherDisplay:10.37,2013-01-13 19:44:00,
2013-01-13 11:49:00,48.4,2.8,29.97,SSE,155,3.5,0.0,15,0.00,CLR,,0.00,535.0,WeatherDisplay:10.37,2013-01-13 19:49:00,
2013-01-13 11:54:00,48.4,2.8,29.96,NNW,335,3.5,0.0,15,0.00,CLR,,0.00,542.0,WeatherDisplay:10.37,2013-01-13 19:54:00,
2013-01-13 11:59:00,50.4,4.4,29.96,WSW,245,1.1,1.1,15,0.00,CLR,,0.00,548.0,WeatherDisplay:10.37,2013-01-13 19:59:00,
2013-01-13 12:04:00,50.0,2.6,29.95,ENE,65,3.5,3.5,14,0.00,CLR,,0.00,554.0,WeatherDisplay:10.37,2013-01-13 20:04:00,
2013-01-13 12:09:00,50.5,-0.3,29.95,SSE,155,6.9,6.9,12,0.00,CLR,,0.00,559.0,WeatherDisplay:10.37,2013-01-13 20:09:00,
2013-01-13 12:14:00,49.3,2.0,29.95,ENE,65,3.5,3.5,14,0.00,CLR,,0.00,564.0,WeatherDisplay:10.37,2013-01-13 20:14:00,
2013-01-13 12:19:00,50.7,3.2,29.94,WNW,290,2.3,2.3,14,0.00,CLR,,0.00,568.0,WeatherDisplay:10.37,2013-01-13 20:19:00,
2013-01-13 12:24:00,52.3,4.5,29.94,SSE,155,2.3,0.0,14,0.00,CLR,,0.00,571.0,WeatherDisplay:10.37,2013-01-13 20:24:00,
2013-01-13 12:29:00,53.1,-0.2,29.95,ENE,65,4.6,4.6,11,0.00,CLR,,0.00,574.8,WeatherDisplay:10.37,2013-01-13 20:29:00,
2013-01-13 12:34:00,52.0,-1.0,29.94,NNW,335,9.2,9.2,11,0.00,CLR,,0.00,577.0,WeatherDisplay:10.37,2013-01-13 20:34:00,
2013-01-13 12:39:00,51.3,2.0,29.94,NNE,20,8.1,8.1,13,0.00,CLR,,0.00,678.3,WeatherDisplay:10.37,2013-01-13 20:39:00,
2013-01-13 12:44:00,50.7,-0.2,29.95,NNE,20,9.2,9.2,12,0.00,CLR,,0.00,581.0,WeatherDisplay:10.37,2013-01-13 20:44:00,
2013-01-13 12:49:00,51.8,2.4,29.94,ESE,110,4.6,4.6,13,0.00,CLR,,0.00,582.0,WeatherDisplay:10.37,2013-01-13 20:49:00,
2013-01-13 12:54:00,52.5,-0.6,29.94,NNW,335,10.4,10.4,11,0.00,CLR,,0.00,583.0,WeatherDisplay:10.37,2013-01-13 20:54:00,
2013-01-13 12:59:00,50.9,4.8,29.94,ESE,110,2.3,2.3,15,0.00,CLR,,0.00,583.0,WeatherDisplay:10.37,2013-01-13 20:59:00,
2013-01-13 13:04:00,51.4,2.1,29.94,ENE,65,12.7,12.7,13,0.00,CLR,,0.00,678.3,WeatherDisplay:10.37,2013-01-13 21:04:00,
2013-01-13 13:09:00,52.0,2.6,29.94,SSE,155,5.8,5.8,13,0.00,CLR,,0.00,781.9,WeatherDisplay:10.37,2013-01-13 21:09:00,
2013-01-13 13:14:00,51.6,3.9,29.94,NNE,20,8.1,8.1,14,0.00,CLR,,0.00,580.0,WeatherDisplay:10.37,2013-01-13 21:14:00,
2013-01-13 13:19:00,52.0,2.6,29.93,ENE,65,3.5,3.5,13,0.00,CLR,,0.00,781.9,WeatherDisplay:10.37,2013-01-13 21:19:00,
2013-01-13 13:24:00,50.2,1.1,29.94,WNW,290,5.8,5.8,13,0.00,CLR,,0.00,781.9,WeatherDisplay:10.37,2013-01-13 21:24:00,
2013-01-13 13:29:00,51.4,2.1,29.93,NNE,20,3.5,3.8,13,0.00,CLR,,0.00,781.9,WeatherDisplay:10.37,2013-01-13 21:29:00,
2013-01-13 13:34:00,50.7,1.6,29.94,NNE,20,8.1,8.1,13,0.00,CLR,,0.00,781.9,WeatherDisplay:10.37,2013-01-13 21:34:00,
2013-01-13 13:39:00,51.3,2.0,29.94,NNE,20,6.9,6.9,13,0.00,CLR,,0.00,885.4,WeatherDisplay:10.37,2013-01-13 21:39:00,
2013-01-13 13:44:00,51.8,2.4,29.94,NNE,20,8.1,8.1,13,0.00,CLR,,0.00,885.4,WeatherDisplay:10.37,2013-01-13 21:44:00,
2013-01-13 13:49:00,52.0,0.8,29.94,ESE,110,4.6,4.6,12,0.00,CLR,,0.00,885.4,WeatherDisplay:10.37,2013-01-13 21:49:00,
2013-01-13 13:54:00,52.0,0.8,29.94,NNE,20,9.2,9.2,12,0.00,CLR,,0.00,885.4,WeatherDisplay:10.37,2013-01-13 21:54:00,
2013-01-13 13:59:00,52.2,1.0,29.94,NNW,335,5.8,5.8,12,0.00,CLR,,0.00,885.4,WeatherDisplay:10.37,2013-01-13 21:59:00,
2013-01-13 14:04:00,50.2,2.7,29.94,NNE,20,10.4,10.4,14,0.00,CLR,,0.00,885.4,WeatherDisplay:10.37,2013-01-13 22:04:00,
2013-01-13 14:09:00,50.2,2.7,29.94,ENE,65,13.0,13.0,14,0.00,CLR,,0.00,885.4,WeatherDisplay:10.37,2013-01-13 22:09:00,
2013-01-13 14:14:00,50.2,2.7,29.95,SE,132,8.1,8.1,14,0.00,CLR,,0.00,885.4,WeatherDisplay:10.37,2013-01-13 22:14:00,
2013-01-13 14:19:00,49.3,2.0,29.95,NNW,335,9.2,9.2,14,0.00,CLR,,0.00,885.4,WeatherDisplay:10.37,2013-01-13 22:19:00,
2013-01-13 14:24:00,49.6,2.3,29.94,NNE,20,10.4,10.4,14,0.00,CLR,,0.00,885.4,WeatherDisplay:10.37,2013-01-13 22:24:00,
2013-01-13 14:29:00,49.5,2.1,29.95,NNW,335,12.7,12.7,14,0.00,CLR,,0.00,885.4,WeatherDisplay:10.37,2013-01-13 22:29:00,
2013-01-13 14:34:00,46.8,2.8,29.94,NNE,20,11.5,11.5,16,0.00,CLR,,0.00,885.4,WeatherDisplay:10.37,2013-01-13 22:34:00,
2013-01-13 14:39:00,47.5,4.8,29.94,ENE,65,3.5,0.0,17,0.00,CLR,,0.00,885.4,WeatherDisplay:10.37,2013-01-13 22:39:00,
2013-01-13 14:44:00,47.1,3.1,29.94,ENE,65,6.9,6.9,16,0.00,CLR,,0.00,885.4,WeatherDisplay:10.37,2013-01-13 22:44:00,
2013-01-13 14:49:00,46.4,3.9,29.94,NNW,335,5.8,5.8,17,0.00,CLR,,0.00,885.4,WeatherDisplay:10.37,2013-01-13 22:49:00,
2013-01-13 14:54:00,46.4,3.9,29.94,NNW,335,5.8,5.8,17,0.00,CLR,,0.00,885.4,WeatherDisplay:10.37,2013-01-13 22:54:00,
2013-01-13 14:59:00,43.7,4.1,29.94,NNE,20,5.8,5.8,19,0.00,CLR,,0.00,885.4,WeatherDisplay:10.37,2013-01-13 22:59:00,
2013-01-13 15:04:00,43.7,4.1,29.94,NNE,20,2.3,2.3,19,0.00,CLR,,0.00,885.4,WeatherDisplay:10.37,2013-01-13 23:04:00,
2013-01-13 15:09:00,43.7,2.9,29.94,WNW,290,4.6,4.6,18,0.00,CLR,,0.00,885.4,WeatherDisplay:10.37,2013-01-13 23:09:00,
2013-01-13 15:14:00,43.2,4.7,29.93,ENE,65,3.5,0.0,20,0.00,CLR,,0.00,885.4,WeatherDisplay:10.37,2013-01-13 23:14:00,
2013-01-13 15:19:00,43.3,5.9,29.93,NNE,20,1.1,0.0,21,0.00,CLR,,0.00,885.4,WeatherDisplay:10.37,2013-01-13 23:19:00,
2013-01-13 15:24:00,43.7,6.2,29.93,NNW,335,2.3,2.3,21,0.00,CLR,,0.00,885.4,WeatherDisplay:10.37,2013-01-13 23:24:00,
2013-01-13 15:29:00,43.3,4.9,29.92,ENE,65,2.3,2.3,20,0.00,CLR,,0.00,885.4,WeatherDisplay:10.37,2013-01-13 23:29:00,
2013-01-13 15:34:00,43.2,4.7,29.93,ENE,65,2.2,2.2,20,0.00,CLR,,0.00,885.4,WeatherDisplay:10.37,2013-01-13 23:34:00,
2013-01-13 15:39:00,43.0,4.6,29.93,ESE,110,2.3,2.3,20,0.00,CLR,,0.00,833.7,WeatherDisplay:10.37,2013-01-13 23:39:00,
2013-01-13 15:44:00,42.8,5.5,29.93,ENE,65,3.5,3.5,21,0.00,CLR,,0.00,833.7,WeatherDisplay:10.37,2013-01-13 23:44:00,
2013-01-13 15:49:00,42.4,5.2,29.93,South,178,3.5,3.5,21,0.00,CLR,,0.00,833.7,WeatherDisplay:10.37,2013-01-13 23:49:00,
2013-01-13 15:54:00,42.1,4.9,29.93,NNE,20,4.6,4.6,21,0.00,CLR,,0.00,833.7,WeatherDisplay:10.37,2013-01-13 23:54:00,
2013-01-13 15:59:00,41.7,4.6,29.93,NNE,20,5.8,5.8,21,0.00,CLR,,0.00,833.7,WeatherDisplay:10.37,2013-01-13 23:59:00,
2013-01-13 16:04:00,41.7,5.6,29.93,ENE,65,4.6,4.6,22,0.00,CLR,,0.00,833.7,WeatherDisplay:10.37,2013-01-14 00:04:00,
2013-01-13 16:09:00,41.5,5.4,29.93,NNE,20,4.6,4.6,22,0.00,CLR,,0.00,781.9,WeatherDisplay:10.37,2013-01-14 00:09:00,
2013-01-13 16:14:00,41.4,5.3,29.93,ENE,65,5.8,5.8,22,0.00,CLR,,0.00,781.9,WeatherDisplay:10.37,2013-01-14 00:14:00,
2013-01-13 16:19:00,41.4,5.3,29.93,ENE,65,5.8,5.8,22,0.00,CLR,,0.00,781.9,WeatherDisplay:10.37,2013-01-14 00:19:00,
2013-01-13 16:24:00,41.9,5.8,29.94,ENE,65,4.6,4.6,22,0.00,CLR,,0.00,781.9,WeatherDisplay:10.37,2013-01-14 00:24:00,
2013-01-13 16:29:00,42.1,4.9,29.94,ENE,65,3.5,3.5,21,0.00,CLR,,0.00,781.9,WeatherDisplay:10.37,2013-01-14 00:29:00,
2013-01-13 16:34:00,41.5,4.4,29.93,ENE,65,3.5,3.5,21,0.00,CLR,,0.00,781.9,WeatherDisplay:10.37,2013-01-14 00:34:00,
2013-01-13 16:39:00,41.0,6.0,29.94,ENE,65,4.6,4.6,23,0.00,CLR,,0.00,833.9,WeatherDisplay:10.37,2013-01-14 00:39:00,
2013-01-13 16:44:00,40.5,5.5,29.94,NNE,20,4.6,4.6,23,0.00,CLR,,0.00,833.9,WeatherDisplay:10.37,2013-01-14 00:44:00,
2013-01-13 16:49:00,39.9,6.0,29.94,ENE,65,4.6,4.6,24,0.00,CLR,,0.00,833.9,WeatherDisplay:10.37,2013-01-14 00:49:00,
2013-01-13 16:54:00,39.4,6.4,29.94,ENE,65,2.3,2.3,25,0.00,CLR,,0.00,833.9,WeatherDisplay:10.37,2013-01-14 00:54:00,
2013-01-13 16:59:00,38.8,6.0,29.94,ENE,65,2.3,2.3,25,0.00,CLR,,0.00,833.9,WeatherDisplay:10.37,2013-01-14 00:59:00,
2013-01-13 17:04:00,38.8,6.0,29.94,ENE,65,1.1,1.1,25,0.00,CLR,,0.00,833.9,WeatherDisplay:10.37,2013-01-14 01:04:00,
2013-01-13 17:09:00,37.9,5.2,29.94,ENE,65,1.1,1.6,25,0.00,CLR,,0.00,833.9,WeatherDisplay:10.37,2013-01-14 01:09:00,
2013-01-13 17:14:00,37.4,4.7,29.94,SE,132,4.6,4.6,25,0.00,CLR,,0.00,833.9,WeatherDisplay:10.37,2013-01-14 01:14:00,
2013-01-13 17:19:00,37.0,5.3,29.94,ENE,65,4.6,4.6,26,0.00,CLR,,0.00,833.9,WeatherDisplay:10.37,2013-01-14 01:19:00,
2013-01-13 17:24:00,36.7,5.0,29.94,ENE,65,4.6,4.6,26,0.00,CLR,,0.00,833.9,WeatherDisplay:10.37,2013-01-14 01:24:00,
2013-01-13 17:29:00,36.3,4.6,29.95,SSE,155,6.9,6.9,26,0.00,CLR,,0.00,833.9,WeatherDisplay:10.37,2013-01-14 01:29:00,
2013-01-13 17:34:00,36.0,5.2,29.95,ENE,65,5.8,5.8,27,0.00,CLR,,0.00,833.9,WeatherDisplay:10.37,2013-01-14 01:34:00,
2013-01-13 17:39:00,35.6,4.8,29.95,ENE,65,3.5,3.5,27,0.00,CLR,,0.00,833.9,WeatherDisplay:10.37,2013-01-14 01:39:00,
2013-01-13 17:44:00,35.2,5.3,29.95,ENE,65,4.6,4.6,28,0.00,CLR,,0.00,833.9,WeatherDisplay:10.37,2013-01-14 01:44:00,
2013-01-13 17:49:00,35.4,4.7,29.95,East,88,5.8,5.8,27,0.00,CLR,,0.00,833.9,WeatherDisplay:10.37,2013-01-14 01:49:00,
2013-01-13 17:54:00,34.9,4.2,29.95,ENE,65,4.5,4.5,27,0.00,CLR,,0.00,833.9,WeatherDisplay:10.37,2013-01-14 01:54:00,
2013-01-13 17:59:00,34.7,3.2,29.95,SE,132,6.9,6.9,26,0.00,CLR,,0.00,833.9,WeatherDisplay:10.37,2013-01-14 01:59:00,
2013-01-13 18:04:00,34.7,4.1,29.95,ENE,65,6.9,6.9,27,0.00,CLR,,0.00,833.9,WeatherDisplay:10.37,2013-01-14 02:04:00,
2013-01-13 18:09:00,34.3,2.9,29.95,NNE,20,8.1,8.1,26,0.00,CLR,,0.00,782.1,WeatherDisplay:10.37,2013-01-14 02:09:00,
2013-01-13 18:14:00,34.2,3.6,29.96,NNE,20,5.8,5.8,27,0.00,CLR,,0.00,782.1,WeatherDisplay:10.37,2013-01-14 02:14:00,
2013-01-13 18:19:00,33.8,3.3,29.96,ESE,110,8.1,8.1,27,0.00,CLR,,0.00,782.1,WeatherDisplay:10.37,2013-01-14 02:19:00,
2013-01-13 18:24:00,33.6,3.1,29.96,ENE,65,5.8,5.8,27,0.00,CLR,,0.00,782.1,WeatherDisplay:10.37,2013-01-14 02:24:00,
2013-01-13 18:29:00,33.3,3.6,29.96,ENE,65,4.6,4.6,28,0.00,CLR,,0.00,782.1,WeatherDisplay:10.37,2013-01-14 02:29:00,
2013-01-13 18:34:00,33.1,3.5,29.96,ESE,110,5.8,5.8,28,0.00,CLR,,0.00,782.1,WeatherDisplay:10.37,2013-01-14 02:34:00,
2013-01-13 18:39:00,32.7,3.9,29.96,ENE,65,3.5,3.5,29,0.00,CLR,,0.00,782.1,WeatherDisplay:10.37,2013-01-14 02:39:00,
2013-01-13 18:44:00,32.4,4.3,29.96,ENE,65,4.6,4.6,30,0.00,CLR,,0.00,782.1,WeatherDisplay:10.37,2013-01-14 02:44:00,
2013-01-13 18:49:00,32.2,4.2,29.96,ENE,65,3.5,3.5,30,0.00,CLR,,0.00,782.1,WeatherDisplay:10.37,2013-01-14 02:49:00,
2013-01-13 18:54:00,31.8,4.6,29.97,ENE,65,1.1,0.0,31,0.00,CLR,,0.00,782.1,WeatherDisplay:10.37,2013-01-14 02:54:00,
2013-01-13 18:59:00,31.1,3.9,29.96,ENE,65,2.3,2.3,31,0.00,CLR,,0.00,782.1,WeatherDisplay:10.37,2013-01-14 02:59:00,
2013-01-13 19:04:00,31.1,3.9,29.97,ENE,65,1.1,1.1,31,0.00,CLR,,0.00,782.1,WeatherDisplay:10.37,2013-01-14 03:04:00,
2013-01-13 19:09:00,30.7,4.3,29.96,ENE,65,5.8,5.8,32,0.00,CLR,,0.00,730.5,WeatherDisplay:10.37,2013-01-14 03:09:00,
2013-01-13 19:14:00,30.7,4.3,29.96,NNE,20,5.8,5.8,32,0.00,CLR,,0.00,730.5,WeatherDisplay:10.37,2013-01-14 03:14:00,
2013-01-13 19:19:00,30.6,4.1,29.96,ENE,65,3.5,3.5,32,0.00,CLR,,0.00,730.5,WeatherDisplay:10.37,2013-01-14 03:19:00,
2013-01-13 19:24:00,30.6,4.8,29.97,ENE,65,5.8,5.8,33,0.00,CLR,,0.00,730.5,WeatherDisplay:10.37,2013-01-14 03:24:00,
2013-01-13 19:29:00,30.4,4.0,29.97,NNE,20,3.5,3.5,32,0.00,CLR,,0.00,730.5,WeatherDisplay:10.37,2013-01-14 03:29:00,
2013-01-13 19:34:00,30.4,4.0,29.97,ENE,65,5.8,5.8,32,0.00,CLR,,0.00,730.5,WeatherDisplay:10.37,2013-01-14 03:34:00,
2013-01-13 19:39:00,30.2,4.5,29.98,ENE,65,3.5,3.5,33,0.00,CLR,,0.00,678.7,WeatherDisplay:10.37,2013-01-14 03:39:00,
2013-01-13 19:44:00,30.0,4.3,29.97,ENE,65,5.8,5.8,33,0.00,CLR,,0.00,678.7,WeatherDisplay:10.37,2013-01-14 03:44:00,
2013-01-13 19:49:00,30.0,4.3,29.97,ENE,65,3.5,3.5,33,0.00,CLR,,0.00,678.7,WeatherDisplay:10.37,2013-01-14 03:49:00,
2013-01-13 19:54:00,29.7,4.0,29.98,NNE,20,3.5,3.5,33,0.00,CLR,,0.00,678.7,WeatherDisplay:10.37,2013-01-14 03:54:00,
2013-01-13 19:59:00,29.7,4.7,29.98,NNW,335,5.8,5.8,34,0.00,CLR,,0.00,678.7,WeatherDisplay:10.37,2013-01-14 03:59:00,
2013-01-13 20:04:00,29.7,4.0,29.99,ENE,65,4.6,4.6,33,0.00,CLR,,0.00,678.7,WeatherDisplay:10.37,2013-01-14 04:04:00,
2013-01-13 20:09:00,29.5,3.9,29.99,ENE,65,6.9,6.9,33,0.00,CLR,,0.00,678.7,WeatherDisplay:10.37,2013-01-14 04:09:00,
2013-01-13 20:14:00,29.5,3.9,29.99,NNE,20,3.5,3.8,33,0.00,CLR,,0.00,678.7,WeatherDisplay:10.37,2013-01-14 04:14:00,
2013-01-13 20:19:00,29.5,3.9,29.99,NNE,20,6.9,6.9,33,0.00,CLR,,0.00,678.7,WeatherDisplay:10.37,2013-01-14 04:19:00,
2013-01-13 20:24:00,29.7,4.0,29.99,ESE,110,6.9,6.9,33,0.00,CLR,,0.00,678.7,WeatherDisplay:10.37,2013-01-14 04:24:00,
2013-01-13 20:29:00,30.2,3.8,29.99,ENE,65,8.1,8.1,32,0.00,CLR,,0.00,678.7,WeatherDisplay:10.37,2013-01-14 04:29:00,
2013-01-13 20:34:00,30.7,3.6,30.00,ENE,65,9.2,9.2,31,0.00,CLR,,0.00,678.7,WeatherDisplay:10.37,2013-01-14 04:34:00,
2013-01-13 20:40:00,30.7,3.6,30.00,ENE,65,10.4,10.4,31,0.00,CLR,,0.00,627.2,WeatherDisplay:10.37,2013-01-14 04:40:00,
2013-01-13 20:45:00,30.7,3.6,29.99,NNE,20,8.1,8.1,31,0.00,CLR,,0.00,627.2,WeatherDisplay:10.37,2013-01-14 04:45:00,
2013-01-13 20:50:00,30.2,3.8,30.00,ENE,65,5.8,5.8,32,0.00,CLR,,0.00,627.2,WeatherDisplay:10.37,2013-01-14 04:50:00,
2013-01-13 20:55:00,30.0,3.7,30.00,ENE,65,5.8,5.8,32,0.00,CLR,,0.00,627.2,WeatherDisplay:10.37,2013-01-14 04:55:00,
2013-01-13 21:00:00,29.8,3.5,30.00,ENE,65,5.8,5.8,32,0.00,CLR,,0.00,627.2,WeatherDisplay:10.37,2013-01-14 05:00:00,
2013-01-13 21:01:00,29.8,3.5,30.00,ENE,65,2.3,2.3,32,0.00,CLR,,0.00,627.2,WeatherDisplay:10.37,2013-01-14 05:01:00,
2013-01-13 21:02:00,29.8,3.5,30.00,ENE,65,2.3,2.3,32,0.00,CLR,,0.00,627.2,WeatherDisplay:10.37,2013-01-14 05:02:00,
2013-01-13 21:03:00,29.8,3.5,30.00,ENE,65,2.3,2.3,32,0.00,CLR,,0.00,0.0,WeatherDisplay:10.37,2013-01-14 05:03:00,
2013-01-13 21:04:00,29.8,3.5,30.00,ENE,65,2.3,2.3,32,0.00,CLR,,0.00,627.2,WeatherDisplay:10.37,2013-01-14 05:04:00,
2013-01-13 21:09:00,29.7,3.4,30.00,WNW,290,3.1,3.1,32,0.00,CLR,,0.00,575.4,WeatherDisplay:10.37,2013-01-14 05:09:00,
2013-01-13 21:14:00,29.7,4.0,30.00,NNE,20,3.5,3.8,33,0.00,CLR,,0.00,575.4,WeatherDisplay:10.37,2013-01-14 05:14:00,
2013-01-13 21:19:00,28.8,3.9,30.01,ENE,65,3.5,3.5,34,0.00,CLR,,0.00,575.4,WeatherDisplay:10.37,2013-01-14 05:19:00,
2013-01-13 21:24:00,28.2,4.0,30.01,ENE,65,3.5,0.0,35,0.00,CLR,,0.00,575.4,WeatherDisplay:10.37,2013-01-14 05:24:00,
2013-01-13 21:29:00,27.7,4.2,30.02,ENE,65,1.1,0.0,36,0.00,CLR,,0.00,575.4,WeatherDisplay:10.37,2013-01-14 05:29:00,
2013-01-13 21:34:00,27.5,5.7,30.01,NNE,20,2.3,2.3,39,0.00,CLR,,0.00,575.4,WeatherDisplay:10.37,2013-01-14 05:34:00,
2013-01-13 21:39:00,27.1,4.3,30.02,NNE,20,1.1,0.0,37,0.00,CLR,,0.00,575.4,WeatherDisplay:10.37,2013-01-14 05:39:00,
2013-01-13 21:44:00,27.0,4.1,30.02,ENE,65,2.3,0.0,37,0.00,CLR,,0.00,575.4,WeatherDisplay:10.37,2013-01-14 05:44:00,
2013-01-13 21:49:00,26.8,3.9,30.02,ENE,65,3.5,3.5,37,0.00,CLR,,0.00,575.4,WeatherDisplay:10.37,2013-01-14 05:49:00,
2013-01-13 21:54:00,26.6,3.2,30.02,NNE,20,5.8,5.8,36,0.00,CLR,,0.00,575.4,WeatherDisplay:10.37,2013-01-14 05:54:00,
2013-01-13 21:59:00,26.4,3.0,30.02,ENE,65,2.3,2.3,36,0.00,CLR,,0.00,575.4,WeatherDisplay:10.37,2013-01-14 05:59:00,
2013-01-13 22:04:00,26.2,2.9,30.03,ENE,65,2.3,2.3,36,0.00,CLR,,0.00,575.4,WeatherDisplay:10.37,2013-01-14 06:04:00,
2013-01-13 22:09:00,26.2,2.9,30.03,NNE,20,5.8,5.8,36,0.00,CLR,,0.00,523.4,WeatherDisplay:10.37,2013-01-14 06:09:00,
2013-01-13 22:14:00,26.2,2.9,30.03,NNE,20,5.8,5.8,36,0.00,CLR,,0.00,0.0,WeatherDisplay:10.37,2013-01-14 06:14:00,
2013-01-13 22:19:00,26.1,2.7,30.03,ENE,65,3.5,3.5,36,0.00,CLR,,0.00,523.4,WeatherDisplay:10.37,2013-01-14 06:19:00,
2013-01-13 22:25:00,25.7,2.9,30.04,NE,50,1.0,3.0,37,0.00,CLR,,0.00,0.0,WeatherDisplay:10.37,2013-01-14 06:25:00,
2013-01-13 22:30:00,25.2,3.1,30.04,ENE,65,3.5,0.0,38,0.00,CLR,,0.00,523.4,WeatherDisplay:10.37,2013-01-14 06:30:00,
2013-01-13 22:35:00,25.0,2.9,30.04,NNE,20,3.5,3.5,38,0.00,CLR,,0.00,0.0,WeatherDisplay:10.37,2013-01-14 06:35:00,
2013-01-13 22:40:00,25.0,2.9,30.04,NNE,20,3.5,3.5,38,0.00,CLR,,0.00,419.9,WeatherDisplay:10.37,2013-01-14 06:40:00,
2013-01-13 22:45:00,24.6,2.6,30.04,NNE,20,3.5,3.5,38,0.00,CLR,,0.00,0.0,WeatherDisplay:10.37,2013-01-14 06:45:00,
2013-01-13 22:50:00,24.4,3.0,30.05,NNE,20,5.8,5.8,39,0.00,CLR,,0.00,419.9,WeatherDisplay:10.37,2013-01-14 06:50:00,
2013-01-13 22:55:00,24.3,2.8,30.05,NNE,20,3.5,3.5,39,0.00,CLR,,0.00,0.0,WeatherDisplay:10.37,2013-01-14 06:55:00,
2013-01-13 23:00:00,23.9,3.0,30.05,ENE,65,2.3,2.3,40,0.00,CLR,,0.00,419.9,WeatherDisplay:10.37,2013-01-14 07:00:00,
2013-01-13 23:05:00,23.9,3.0,30.06,ENE,65,2.3,2.3,40,0.00,CLR,,0.00,0.0,WeatherDisplay:10.37,2013-01-14 07:05:00,
2013-01-13 23:10:00,24.4,2.4,30.05,NNE,20,4.6,4.6,38,0.00,CLR,,0.00,419.9,WeatherDisplay:10.37,2013-01-14 07:10:00,
2013-01-13 23:15:00,25.3,2.1,30.06,NNE,20,5.8,5.8,36,0.00,CLR,,0.00,0.0,WeatherDisplay:10.37,2013-01-14 07:15:00,
2013-01-13 23:20:00,26.2,1.6,30.06,ENE,65,8.1,8.1,34,0.00,CLR,,0.00,419.9,WeatherDisplay:10.37,2013-01-14 07:20:00,
2013-01-13 23:25:00,26.6,1.3,30.06,ENE,65,6.9,6.9,33,0.00,CLR,,0.00,419.9,WeatherDisplay:10.37,2013-01-14 07:25:00,
2013-01-13 23:31:00,26.6,1.3,30.06,ENE,65,3.5,3.5,33,0.00,CLR,,0.00,0.0,WeatherDisplay:10.37,2013-01-14 07:31:00,
2013-01-13 23:36:00,26.4,1.8,30.06,ENE,65,3.5,3.5,34,0.00,CLR,,0.00,0.0,WeatherDisplay:10.37,2013-01-14 07:36:00,
2013-01-13 23:41:00,26.2,1.6,30.06,ENE,65,3.5,3.5,34,0.00,CLR,,0.00,0.0,WeatherDisplay:10.37,2013-01-14 07:41:00,
2013-01-13 23:46:00,26.1,1.5,30.06,NNE,20,3.5,3.5,34,0.00,CLR,,0.00,0.0,WeatherDisplay:10.37,2013-01-14 07:46:00,
2013-01-13 23:51:00,25.9,1.3,30.07,ENE,65,3.5,3.5,34,0.00,CLR,,0.00,0.0,WeatherDisplay:10.37,2013-01-14 07:51:00,
2013-01-13 23:56:00,25.5,1.6,30.06,ENE,65,3.5,3.5,35,0.00,CLR,,0.00,0.0,WeatherDisplay:10.37,2013-01-14 07:56:00,